| time (UTC) | temp F | wind direction | speed MPH | gust MPH | rain 1hr in | rain 24hr in | rain mn in | humidity % | barometer mb |
| 20260902212016 | 99 | 180 | 9.0 | 11.0 | 0.00 | 0.00 | 0.00 | 46 | 1011.8 |
| 20260902211018 | 98 | 158 | 4.0 | 7.0 | 0.00 | 0.00 | 0.00 | 49 | 1011.9 |
| 20260902210016 | 98 | 203 | 2.0 | 4.0 | 0.00 | 0.00 | 0.00 | 48 | 1012.0 |
| 20260902205037 | 98 | 135 | 4.0 | 8.0 | 0.00 | 0.00 | 0.00 | 47 | 1012.2 |
| 20260902204017 | 99 | 225 | 4.0 | 7.0 | 0.00 | 0.00 | 0.00 | 47 | 1012.3 |
| 20260902203017 | 99 | 203 | 3.0 | 5.0 | 0.00 | 0.00 | 0.00 | 48 | 1012.3 |
| 20260902202017 | 99 | 203 | 5.0 | 7.0 | 0.00 | 0.00 | 0.00 | 48 | 1012.5 |
| 20260902201016 | 98 | 203 | 2.0 | 4.0 | 0.00 | 0.00 | 0.00 | 50 | 1012.5 |
| 20260902200037 | 98 | 225 | 3.0 | 5.0 | 0.00 | 0.00 | 0.00 | 50 | 1012.6 |
| 20260902195017 | 98 | 158 | 5.0 | 6.0 | 0.00 | 0.00 | 0.00 | 49 | 1012.7 |
| 20260902194017 | 98 | 203 | 4.0 | 6.0 | 0.00 | 0.00 | 0.00 | 51 | 1012.8 |
| 20260902193037 | 97 | 248 | 4.0 | 6.0 | 0.00 | 0.00 | 0.00 | 50 | 1012.9 |
| 20260902192017 | 97 | 270 | 2.0 | 4.0 | 0.00 | 0.00 | 0.00 | 50 | 1013.0 |
| 20260902191017 | 98 | 270 | 6.0 | 9.0 | 0.00 | 0.00 | 0.00 | 50 | 1013.1 |
| 20260902190038 | 98 | 203 | 5.0 | 7.0 | 0.00 | 0.00 | 0.00 | 50 | 1013.3 |
| 20260902185017 | 98 | 158 | 5.0 | 8.0 | 0.00 | 0.00 | 0.00 | 51 | 1013.5 |
| 20260902184017 | 98 | 248 | 4.0 | 5.0 | 0.00 | 0.00 | 0.00 | 51 | 1013.6 |
| 20260902183017 | 98 | 203 | 3.0 | 5.0 | 0.00 | 0.00 | 0.00 | 53 | 1013.9 |
| 20260902182017 | 98 | 180 | 4.0 | 7.0 | 0.00 | 0.00 | 0.00 | 53 | 1014.0 |
| 20260902181018 | 97 | 248 | 3.0 | 6.0 | 0.00 | 0.00 | 0.00 | 53 | 1014.0 |
| 20260902180017 | 97 | 225 | 4.0 | 8.0 | 0.00 | 0.00 | 0.00 | 51 | 1014.1 |
| 20260902175017 | 97 | 225 | 5.0 | 9.0 | 0.00 | 0.00 | 0.00 | 53 | 1014.2 |
| 20260902174017 | 97 | 180 | 4.0 | 6.0 | 0.00 | 0.00 | 0.00 | 55 | 1014.3 |
| 20260902173017 | 96 | 180 | 4.0 | 6.0 | 0.00 | 0.00 | 0.00 | 55 | 1014.5 |
| 20260902172017 | 96 | 158 | 4.0 | 7.0 | 0.00 | 0.00 | 0.00 | 55 | 1014.6 |
| 20260902171017 | 95 | 180 | 4.0 | 7.0 | 0.00 | 0.00 | 0.00 | 59 | 1014.6 |
| 20260902170017 | 95 | 225 | 4.0 | 6.0 | 0.00 | 0.00 | 0.00 | 57 | 1014.7 |
| 20260902165017 | 94 | 180 | 4.0 | 8.0 | 0.00 | 0.00 | 0.00 | 58 | 1014.8 |
| 20260902164017 | 94 | 203 | 5.0 | 7.0 | 0.00 | 0.00 | 0.00 | 58 | 1015.0 |
| 20260902163017 | 93 | 180 | 9.0 | 14.0 | 0.00 | 0.00 | 0.00 | 58 | 1015.0 |
| 20260902162018 | 93 | 270 | 4.0 | 5.0 | 0.00 | 0.00 | 0.00 | 59 | 1015.1 |
| 20260902161017 | 93 | 203 | 3.0 | 7.0 | 0.00 | 0.00 | 0.00 | 61 | 1015.1 |
| 20260902160037 | 92 | 270 | 2.0 | 5.0 | 0.00 | 0.00 | 0.00 | 60 | 1015.0 |
| 20260902155017 | 92 | 203 | 3.0 | 7.0 | 0.00 | 0.00 | 0.00 | 63 | 1015.0 |
| 20260902154017 | 91 | 270 | 4.0 | 9.0 | 0.00 | 0.00 | 0.00 | 63 | 1015.0 |
| 20260902153018 | 91 | 203 | 4.0 | 7.0 | 0.00 | 0.00 | 0.00 | 63 | 1015.0 |
| 20260902152017 | 90 | 248 | 4.0 | 12.0 | 0.00 | 0.00 | 0.00 | 63 | 1015.0 |
| 20260902151037 | 89 | 0.0 | 2.0 | 0.00 | 0.00 | 0.00 | 68 | 1015.0 | |
| 20260902150017 | 88 | 203 | 3.0 | 6.0 | 0.00 | 0.00 | 0.00 | 68 | 1014.9 |
| 20260902145018 | 87 | 225 | 1.0 | 2.0 | 0.00 | 0.00 | 0.00 | 68 | 1014.9 |
| 20260902144017 | 87 | 248 | 3.0 | 8.0 | 0.00 | 0.00 | 0.00 | 69 | 1015.0 |
| 20260902143037 | 86 | 225 | 3.0 | 6.0 | 0.00 | 0.00 | 0.00 | 70 | 1014.9 |
| 20260902142017 | 85 | 203 | 2.0 | 4.0 | 0.00 | 0.00 | 0.00 | 70 | 1015.0 |
| 20260902141018 | 84 | 158 | 2.0 | 6.0 | 0.00 | 0.00 | 0.00 | 72 | 1015.0 |
| 20260902140017 | 83 | 135 | 1.0 | 4.0 | 0.00 | 0.00 | 0.00 | 73 | 1014.8 |
| 20260902135017 | 82 | 225 | 2.0 | 3.0 | 0.00 | 0.00 | 0.00 | 75 | 1014.9 |
| 20260902134017 | 81 | 203 | 1.0 | 5.0 | 0.00 | 0.00 | 0.00 | 75 | 1014.9 |
| 20260902133017 | 80 | 180 | 3.0 | 6.0 | 0.00 | 0.00 | 0.00 | 76 | 1014.9 |
| 20260902132017 | 80 | 203 | 3.0 | 4.0 | 0.00 | 0.00 | 0.00 | 76 | 1014.8 |
| 20260902131017 | 79 | 203 | 2.0 | 3.0 | 0.00 | 0.00 | 0.00 | 77 | 1014.7 |
| 20260902130017 | 78 | 158 | 1.0 | 2.0 | 0.00 | 0.00 | 0.00 | 78 | 1015.0 |
| 20260902125037 | 78 | 158 | 4.0 | 6.0 | 0.00 | 0.00 | 0.00 | 78 | 1014.8 |
| 20260902124037 | 77 | 158 | 2.0 | 4.0 | 0.00 | 0.00 | 0.00 | 79 | 1014.8 |
| 20260902123017 | 76 | 158 | 3.0 | 4.0 | 0.00 | 0.00 | 0.00 | 80 | 1014.7 |
| 20260902122017 | 75 | 203 | 2.0 | 3.0 | 0.00 | 0.00 | 0.00 | 81 | 1014.6 |
| 20260902121017 | 75 | 203 | 2.0 | 3.0 | 0.00 | 0.00 | 0.00 | 81 | 1014.6 |
| 20260902120018 | 75 | 135 | 1.0 | 2.0 | 0.00 | 0.00 | 0.00 | 81 | 1014.5 |
| 20260902115017 | 74 | 158 | 1.0 | 2.0 | 0.00 | 0.00 | 0.00 | 82 | 1014.4 |
| 20260902114017 | 74 | 135 | 2.0 | 4.0 | 0.00 | 0.00 | 0.00 | 82 | 1014.3 |
| 20260902113037 | 73 | 0.0 | 2.0 | 0.00 | 0.00 | 0.00 | 84 | 1014.2 | |
| 20260902112017 | 73 | 0.0 | 0.0 | 0.00 | 0.00 | 0.00 | 84 | 1014.2 | |
| 20260902111018 | 73 | 0.0 | 0.0 | 0.00 | 0.00 | 0.00 | 84 | 1014.0 | |
| 20260902110037 | 73 | 0.0 | 0.0 | 0.00 | 0.00 | 0.00 | 84 | 1014.2 | |
| 20260902105017 | 73 | 0.0 | 0.0 | 0.00 | 0.00 | 0.00 | 83 | 1014.0 | |
| 20260902104018 | 73 | 0.0 | 0.0 | 0.00 | 0.00 | 0.00 | 83 | 1014.0 | |
| 20260902103017 | 73 | 0.0 | 1.0 | 0.00 | 0.00 | 0.00 | 83 | 1013.9 | |
| 20260902102017 | 74 | 0.0 | 0.0 | 0.00 | 0.00 | 0.00 | 82 | 1013.9 | |
| 20260902101018 | 74 | 0.0 | 0.0 | 0.00 | 0.00 | 0.00 | 81 | 1013.8 | |
| 20260902100017 | 74 | 0.0 | 0.0 | 0.00 | 0.00 | 0.00 | 80 | 1013.8 | |
| 20260902095017 | 75 | 0.0 | 0.0 | 0.00 | 0.00 | 0.00 | 80 | 1013.8 | |
| 20260902094017 | 75 | 0.0 | 0.0 | 0.00 | 0.00 | 0.00 | 79 | 1013.7 | |
| 20260902093017 | 75 | 203 | 1.0 | 2.0 | 0.00 | 0.00 | 0.00 | 79 | 1013.7 |
| 20260902092017 | 75 | 0.0 | 0.0 | 0.00 | 0.00 | 0.00 | 79 | 1013.6 | |
| 20260902091017 | 76 | 0.0 | 1.0 | 0.00 | 0.00 | 0.00 | 78 | 1013.7 | |
| 20260902090017 | 76 | 0.0 | 0.0 | 0.00 | 0.00 | 0.00 | 78 | 1013.7 | |
| 20260902085037 | 76 | 180 | 2.0 | 2.0 | 0.00 | 0.00 | 0.00 | 78 | 1013.7 |
| 20260902084017 | 76 | 180 | 1.0 | 2.0 | 0.00 | 0.00 | 0.00 | 78 | 1013.6 |
| 20260902083017 | 76 | 180 | 1.0 | 2.0 | 0.00 | 0.00 | 0.00 | 79 | 1013.6 |
| 20260902082018 | 75 | 158 | 1.0 | 2.0 | 0.00 | 0.00 | 0.00 | 80 | 1013.5 |
| 20260902081018 | 75 | 0.0 | 0.0 | 0.00 | 0.00 | 0.00 | 80 | 1013.4 | |
| 20260902080017 | 75 | 0.0 | 0.0 | 0.00 | 0.00 | 0.00 | 79 | 1013.4 | |
| 20260902075017 | 76 | 0.0 | 0.0 | 0.00 | 0.00 | 0.00 | 79 | 1013.3 | |
| 20260902074017 | 75 | 0.0 | 0.0 | 0.00 | 0.00 | 0.00 | 80 | 1013.3 | |
| 20260902073017 | 74 | 0.0 | 0.0 | 0.00 | 0.00 | 0.00 | 81 | 1013.3 | |
| 20260902072037 | 74 | 0.0 | 0.0 | 0.00 | 0.00 | 0.00 | 81 | 1013.3 | |
| 20260902071017 | 75 | 0.0 | 0.0 | 0.00 | 0.00 | 0.00 | 81 | 1013.3 | |
| 20260902070017 | 75 | 0.0 | 0.0 | 0.00 | 0.00 | 0.00 | 82 | 1013.3 | |
| 20260902065017 | 76 | 0.0 | 0.0 | 0.00 | 0.00 | 0.00 | 80 | 1013.4 | |
| 20260902064017 | 76 | 0.0 | 0.0 | 0.00 | 0.00 | 0.00 | 78 | 1013.5 | |
| 20260902063116 | 77 | 0.0 | 0.0 | 0.00 | 0.00 | 0.00 | 76 | 1013.6 | |
| 20260902062919 | 77 | 0.0 | 0.0 | 0.00 | 0.00 | 0.00 | 76 | 1013.6 | |
| 20260902061937 | 77 | 0.0 | 0.0 | 0.00 | 0.00 | 0.00 | 76 | 1013.6 | |
| 20260902060957 | 77 | 0.0 | 0.0 | 0.00 | 0.00 | 0.00 | 75 | 1013.6 | |
| 20260902055917 | 78 | 0.0 | 0.0 | 0.00 | 0.00 | 0.00 | 75 | 1013.5 | |
| 20260902054938 | 77 | 0.0 | 1.0 | 0.00 | 0.00 | 0.00 | 76 | 1013.5 | |
| 20260902053917 | 77 | 0.0 | 0.0 | 0.00 | 0.00 | 0.00 | 77 | 1013.5 | |
| 20260902052917 | 76 | 0.0 | 0.0 | 0.00 | 0.00 | 0.00 | 79 | 1013.4 | |
| 20260902051917 | 76 | 0.0 | 0.0 | 0.00 | 0.00 | 0.00 | 80 | 1013.4 | |
| 20260902050917 | 76 | 0.0 | 0.0 | 0.00 | 0.00 | 0.00 | 78 | 1013.3 | |
| 20260902045957 | 76 | 0.0 | 0.0 | 0.00 | 0.00 | 0.00 | 78 | 1013.1 | |
| 20260902044916 | 76 | 0.0 | 0.0 | 0.00 | 0.00 | 0.00 | 79 | 1013.2 | |
| 20260902043916 | 77 | 0.0 | 0.0 | 0.00 | 0.00 | 0.00 | 78 | 1013.3 | |
| 20260902042916 | 77 | 0.0 | 0.0 | 0.00 | 0.00 | 0.00 | 75 | 1013.3 | |
| 20260902041916 | 78 | 0.0 | 0.0 | 0.00 | 0.00 | 0.00 | 75 | 1013.3 | |
| 20260902040917 | 78 | 0.0 | 0.0 | 0.00 | 0.00 | 0.00 | 72 | 1013.2 | |
| 20260902035916 | 79 | 0.0 | 0.0 | 0.00 | 0.00 | 0.00 | 71 | 1013.1 | |
| 20260902034916 | 80 | 0.0 | 0.0 | 0.00 | 0.00 | 0.00 | 70 | 1013.2 | |
| 20260902033916 | 80 | 0.0 | 0.0 | 0.00 | 0.00 | 0.00 | 69 | 1013.2 | |
| 20260902032916 | 81 | 0.0 | 0.0 | 0.00 | 0.00 | 0.00 | 68 | 1013.1 | |
| 20260902031917 | 82 | 0.0 | 0.0 | 0.00 | 0.00 | 0.00 | 67 | 1013.0 | |
| 20260902030917 | 83 | 0.0 | 0.0 | 0.00 | 0.00 | 0.00 | 65 | 1012.9 | |
| 20260902025916 | 84 | 0.0 | 0.0 | 0.00 | 0.00 | 0.00 | 64 | 1012.8 | |
| 20260902024916 | 84 | 0.0 | 1.0 | 0.00 | 0.00 | 0.00 | 63 | 1012.8 | |
| 20260902023936 | 85 | 0.0 | 1.0 | 0.00 | 0.00 | 0.00 | 61 | 1012.8 | |
| 20260902022916 | 85 | 113 | 1.0 | 2.0 | 0.00 | 0.00 | 0.00 | 62 | 1012.7 |
| 20260902021916 | 84 | 0.0 | 1.0 | 0.00 | 0.00 | 0.00 | 63 | 1012.5 | |
| 20260902020917 | 84 | 113 | 1.0 | 2.0 | 0.00 | 0.00 | 0.00 | 63 | 1012.5 |
| 20260902015916 | 84 | 113 | 1.0 | 3.0 | 0.00 | 0.00 | 0.00 | 63 | 1012.4 |
| 20260902014936 | 83 | 0.0 | 1.0 | 0.00 | 0.00 | 0.00 | 66 | 1012.3 | |
| 20260902013936 | 83 | 0.0 | 0.0 | 0.00 | 0.00 | 0.00 | 67 | 1012.2 | |
| 20260902012916 | 84 | 0.0 | 0.0 | 0.00 | 0.00 | 0.00 | 66 | 1012.1 | |
| 20260902011916 | 84 | 0.0 | 0.0 | 0.00 | 0.00 | 0.00 | 65 | 1011.9 | |
| 20260902010916 | 85 | 0.0 | 0.0 | 0.00 | 0.00 | 0.00 | 62 | 1012.0 | |
| 20260902005916 | 86 | 0.0 | 0.0 | 0.00 | 0.00 | 0.00 | 62 | 1011.9 | |
| 20260902004937 | 87 | 0.0 | 0.0 | 0.00 | 0.00 | 0.00 | 61 | 1012.0 | |
| 20260902003917 | 89 | 0.0 | 0.0 | 0.00 | 0.00 | 0.00 | 60 | 1012.0 | |
| 20260902002956 | 92 | 0.0 | 0.0 | 0.00 | 0.00 | 0.00 | 53 | 1012.1 | |
| 20260902001916 | 94 | 0.0 | 0.0 | 0.00 | 0.00 | 0.00 | 53 | 1012.2 | |
| 20260902000916 | 96 | 0.0 | 0.0 | 0.00 | 0.00 | 0.00 | 51 | 1012.4 | |
| 20260901235916 | 97 | 0.0 | 0.0 | 0.00 | 0.00 | 0.00 | 48 | 1012.4 | |
| 20260901234916 | 96 | 0.0 | 1.0 | 0.00 | 0.00 | 0.00 | 48 | 1012.4 | |
| 20260901233916 | 97 | 180 | 1.0 | 2.0 | 0.00 | 0.00 | 0.00 | 47 | 1012.5 |
| 20260901232916 | 97 | 158 | 1.0 | 2.0 | 0.00 | 0.00 | 0.00 | 47 | 1012.5 |
| 20260901231917 | 97 | 180 | 2.0 | 2.0 | 0.00 | 0.00 | 0.00 | 45 | 1012.5 |
| 20260901230916 | 98 | 180 | 2.0 | 3.0 | 0.00 | 0.00 | 0.00 | 45 | 1012.5 |
| 20260901225917 | 98 | 225 | 3.0 | 5.0 | 0.00 | 0.00 | 0.00 | 44 | 1012.5 |
| 20260901224916 | 98 | 180 | 4.0 | 6.0 | 0.00 | 0.00 | 0.00 | 43 | 1012.5 |
| 20260901223916 | 98 | 135 | 5.0 | 7.0 | 0.00 | 0.00 | 0.00 | 44 | 1012.5 |
| 20260901222916 | 98 | 158 | 6.0 | 11.0 | 0.00 | 0.00 | 0.00 | 41 | 1012.5 |
| 20260901221916 | 98 | 180 | 4.0 | 5.0 | 0.00 | 0.00 | 0.00 | 42 | 1012.7 |
| 20260901220916 | 98 | 180 | 5.0 | 6.0 | 0.00 | 0.00 | 0.00 | 41 | 1012.6 |
| 20260901215916 | 99 | 158 | 5.0 | 7.0 | 0.00 | 0.00 | 0.00 | 40 | 1012.6 |
| 20260901214917 | 99 | 203 | 2.0 | 5.0 | 0.00 | 0.00 | 0.00 | 41 | 1012.7 |
| 20260901213917 | 99 | 180 | 8.0 | 11.0 | 0.00 | 0.00 | 0.00 | 39 | 1012.7 |
| 20260901212916 | 99 | 203 | 10.0 | 14.0 | 0.00 | 0.00 | 0.00 | 39 | 1012.8 |